Torna al catalogo

STARLINK-34717

AttivoComunicazioniSSO
NORAD 65060·PAYLOAD·🇺🇸 United States

Lanciato Jul 31, 2025 da Vandenberg Space Force Base

Loading…

Prossimi Passaggi (prossime 24 ore)

TLE

AggiornatoSource: CelesTrak SupGP

Epoca: Sep 14, 2026, 23:01 UTC

1 65060C 25165E   26257.95951389  .02072900  00000+0  85145-1 0  2577
2 65060  97.2841 329.2916 0001394  87.1548  83.8719 15.23227799    16

Traccia STARLINK-34717 in tempo reale con AllMySat

Download on the App Store